FW1036 Weather Reports


time (UTC)temp
C
wind
direction
speed
KPH
gust
KPH
rain 1hr
cm
rain 24hr
cm
rain mn
cm
humidity
%
barometer
mb
20260506034553 5 360 6.4 16.1 0.00 0.00 0.00 80 1007.2
20260506033042 6 331 9.7 20.9 0.00 0.00 0.00 72 1007.0
20260506031540 7 251 3.2 6.4 0.00 0.00 0.00 65 1006.6
20260506030039 7 238 1.6 4.8 0.00 0.00 0.00 64 1006.6
20260506024538 8 238 0.0 4.8 0.00 0.00 0.00 63 1006.9
20260506023036 8 242 3.2 6.4 0.00 0.00 0.00 61 1006.6
20260506021544 9 230 4.8 8.0 0.00 0.00 0.00 59 1006.5
20260506020034 10 222 4.8 11.3 0.00 0.00 0.00 58 1006.4
20260506014532 10 225 6.4 11.3 0.00 0.00 0.00 59 1006.2
20260506013033 10 221 3.2 8.0 0.00 0.00 0.00 60 1006.1
20260506011548 10 194 1.6 6.4 0.00 0.00 0.00 65 1006.0
20260506010029 9 141 0.0 3.2 0.00 0.00 0.00 77 1006.0
20260506004539 9 141 0.0 3.2 0.00 0.00 0.00 77 1005.9
20260506003030 9 141 0.0 4.8 0.00 0.00 0.00 77 1005.8
20260506001527 10 141 3.2 4.8 0.00 0.00 0.00 76 1005.7
20260506000026 10 38 0.0 0.0 0.00 0.00 0.00 74 1005.4
20260505234528 10 38 1.6 4.8 0.00 0.00 0.00 73 1005.2
20260505233031 10 38 0.0 4.8 0.00 0.00 0.00 72 1005.1
20260505231531 10 38 4.8 17.7 0.00 0.00 0.00 70 1005.1
20260505230026 13 355 1.6 17.7 0.00 0.00 0.00 47 1005.1
20260505224522 13 238 4.8 14.5 0.00 0.00 0.00 45 1005.0
20260505223020 13 217 3.2 11.3 0.00 0.00 0.00 64 1005.1
20260505221519 13 223 4.8 14.5 0.00 0.00 0.00 65 1005.1
20260505220040 13 230 9.7 16.1 0.00 0.00 0.00 64 1005.0
20260505214525 13 209 6.4 22.5 0.00 0.00 0.00 65 1005.0
20260505213021 13 242 6.4 22.5 0.00 0.00 0.00 66 1005.2
20260505211517 13 155 8.0 17.7 0.00 0.00 0.00 65 1005.1
20260505210017 13 227 6.4 14.5 0.00 0.00 0.00 67 1004.9
20260505204518 12 225 3.2 17.7 0.00 0.00 0.00 66 1005.2
20260505203014 13 192 9.7 17.7 0.00 0.00 0.00 64 1005.4
20260505201517 12 205 8.0 19.3 0.00 0.00 0.00 64 1005.2
20260505200013 12 227 9.7 16.1 0.00 0.00 0.00 66 1005.3
20260505194519 12 240 8.0 16.1 0.00 0.00 0.00 66 1005.4
20260505193014 12 169 6.4 17.7 0.00 0.00 0.00 66 1005.5
20260505191612 12 165 6.4 17.7 0.00 0.00 0.00 66 1005.5
20260505190010 12 171 4.8 24.1 0.00 0.00 0.00 67 1005.3
20260505184510 11 172 12.9 24.1 0.00 0.00 0.00 66 1005.2
20260505183007 11 209 6.4 19.3 0.00 0.00 0.00 66 1005.3
20260505181507 11 200 6.4 17.7 0.00 0.00 0.00 68 1005.1
20260505180006 11 203 6.4 16.1 0.00 0.00 0.00 66 1005.0
20260505174505 11 196 6.4 14.5 0.00 0.00 0.00 64 1005.1
20260505173005 11 162 9.7 16.1 0.00 0.00 0.00 66 1004.8
20260505171503 11 190 6.4 16.1 0.00 0.00 0.00 64 1005.0
20260505170003 11 207 3.2 12.9 0.00 0.00 0.00 65 1004.9
20260505164501 10 217 3.2 12.9 0.00 0.00 0.00 63 1004.9
20260505163000 10 176 1.6 11.3 0.00 0.00 0.00 65 1004.8
20260505161605 10 232 6.4 11.3 0.00 0.00 0.00 63 1005.0
20260505153109 9 203 0.0 8.0 0.00 0.00 0.00 66 1005.0
20260505151555 9 238 1.6 4.8 0.00 0.00 0.00 65 1004.9
20260505124547 8 333 8.0 16.1 0.00 0.00 0.00 64 1002.5
20260505123041 8 339 4.8 16.1 0.00 0.00 0.00 63 1002.4
20260505121538 9 331 3.2 14.5 0.00 0.00 0.00 64 1002.4
20260505120047 8 340 4.8 12.9 0.00 0.00 0.00 65 1002.2
20260505114535 8 5 9.7 16.1 0.00 0.00 0.00 66 1002.1
20260505113035 8 15 9.7 16.1 0.00 0.00 0.00 67 1002.0
20260505111531 7 11 6.4 12.9 0.00 0.00 0.00 67 1001.7
20260505101520 7 9 9.7 16.1 0.00 0.00 0.00 69 1000.0
20260505100018 7 338 12.9 20.9 0.00 0.00 0.00 68 999.7
20260505094518 7 5 11.3 19.3 0.00 0.00 0.00 69 999.6
20260505093014 8 11 12.9 22.5 0.00 0.00 0.00 69 999.4
20260505091514 8 311 14.5 22.5 0.00 0.00 0.00 71 999.3
20260505090009 7 5 11.3 25.7 0.00 0.00 0.00 75 999.1
20260505084520 7 5 12.9 25.7 0.00 0.00 0.00 79 998.9
20260505083003 8 343 9.7 24.1 0.00 0.00 0.00 82 998.3
20260505081600 8 355 12.9 17.7 0.00 0.00 0.00 82 997.9
20260505080112 8 5 9.7 22.5 0.00 0.00 0.00 81 997.7
20260505074553 10 17 12.9 17.7 0.00 0.00 0.00 79 997.5
20260505073048 12 12 14.5 22.5 0.00 0.00 0.00 75 997.1
20260505071545 16 277 3.2 12.9 0.00 0.00 0.00 71 997.0
20260505070046 16 231 6.4 14.5 0.00 0.00 0.00 72 996.7
20260505064548 15 223 8.0 14.5 0.00 0.00 0.00 74 996.7
20260505063041 15 237 12.9 24.1 0.00 0.00 0.00 77 996.8
20260505061540 15 245 4.8 6.4 0.00 0.00 0.00 78 996.8
20260505060040 15 215 3.2 6.4 0.00 0.00 0.00 78 996.9
20260505054539 15 216 0.0 6.4 0.00 0.00 0.00 77 997.0
20260505053104 16 215 3.2 8.0 0.00 0.00 0.00 73 997.2
20260505051537 15 203 1.6 9.7 0.00 0.00 0.00 75 997.1
20260505041523 16 230 6.4 19.3 0.00 0.00 0.00 72 996.4
20260505040020 16 171 4.8 19.3 0.00 0.00 0.00 72 996.2